KN4RPA Weather Reports


time (UTC)temp
F
wind
direction
speed
knots
gust
knots
rain 1hr
in
rain 24hr
in
rain mn
in
humidity
%
barometer
mb
20260504231528 74 157 0.0 1.7 0.00 0.00 0.00 31 1008.9
20260504230027 74 160 0.9 5.2 0.00 0.00 0.00 30 1008.8
20260504224533 75 159 0.0 5.2 0.00 0.00 0.00 29 1008.8
20260504223027 75 159 0.0 6.1 0.00 0.00 0.00 29 1008.7
20260504221536 75 160 0.0 4.3 0.00 0.00 0.00 30 1008.9
20260504220025 76 156 0.0 8.7 0.00 0.00 0.00 29 1008.9
20260504214524 76 157 1.7 6.1 0.00 0.00 0.00 29 1008.9
20260504213036 76 156 0.0 6.1 0.00 0.00 0.00 28 1008.8
20260504211531 76 142 0.9 4.3 0.00 0.00 0.00 28 1008.9
20260504210023 76 182 0.0 2.6 0.00 0.00 0.00 27 1009.0
20260504204521 75 182 0.0 9.6 0.00 0.00 0.00 28 1009.1
20260504203022 75 166 0.0 7.0 0.00 0.00 0.00 27 1008.9
20260504201517 75 157 0.9 6.1 0.00 0.00 0.00 27 1009.3
20260504200019 75 160 2.6 12.2 0.00 0.00 0.00 28 1009.4
20260504194521 73 148 0.0 7.0 0.00 0.00 0.00 30 1009.7
20260504193017 75 168 1.7 7.8 0.00 0.00 0.00 27 1009.7
20260504191513 76 157 0.0 5.2 0.00 0.00 0.00 28 1009.8
20260504190018 75 169 0.0 7.8 0.00 0.00 0.00 28 1010.0
20260504184526 75 156 0.0 2.6 0.00 0.00 0.00 26 1010.2
20260504183007 76 180 0.0 5.2 0.00 0.00 0.00 26 1010.6
20260504181505 75 162 0.0 5.2 0.00 0.00 0.00 26 1010.8
20260504180004 75 164 0.0 6.1 0.00 0.00 0.00 26 1011.0
20260504174503 74 157 0.0 7.8 0.00 0.00 0.00 26 1011.1
20260504173002 74 157 0.0 2.6 0.00 0.00 0.00 27 1011.2
20260504171601 73 155 0.0 2.6 0.00 0.00 0.00 27 1011.6
20260504081527 48 43 0.0 0.9 0.00 0.00 0.00 62 1014.6
20260504050013 47 43 0.0 0.0 0.00 0.00 0.00 66 1014.6
20260504044514 47 43 0.0 0.0 0.00 0.00 0.00 65 1014.6
20260504043013 47 43 0.0 0.0 0.00 0.00 0.00 65 1014.4
20260504041511 46 43 0.0 0.0 0.00 0.00 0.00 64 1014.4
20260504040010 46 43 0.0 0.0 0.00 0.00 0.00 62 1014.3
20260504034517 46 43 0.0 0.0 0.00 0.00 0.00 60 1014.3
20260504033009 47 43 0.0 0.0 0.00 0.00 0.00 58 1014.3
20260504031509 47 43 0.0 0.0 0.00 0.00 0.00 56 1014.4
20260504030008 48 43 0.0 0.0 0.00 0.00 0.00 55 1014.5
20260504024509 48 43 0.0 0.0 0.00 0.00 0.00 53 1014.2
20260504023007 49 42 0.0 0.0 0.00 0.00 0.00 52 1014.3
20260504021506 50 43 0.0 0.0 0.00 0.00 0.00 50 1014.4
20260504020007 50 43 0.0 0.0 0.00 0.00 0.00 49 1014.1
20260504014507 51 43 0.0 0.0 0.00 0.00 0.00 48 1014.2
20260504013005 51 43 0.0 0.0 0.00 0.00 0.00 47 1014.1
20260504011504 52 43 0.0 0.0 0.00 0.00 0.00 46 1013.9
20260504010003 53 43 0.0 0.0 0.00 0.00 0.00 45 1013.9
20260504004506 55 43 0.0 0.0 0.00 0.00 0.00 41 1013.6
20260504003003 56 43 0.0 0.0 0.00 0.00 0.00 39 1013.5
20260504001502 57 42 0.0 0.0 0.00 0.00 0.00 36 1013.4
20260504000003 59 43 0.0 0.0 0.00 0.00 0.00 31 1013.4
20260503234501 60 43 0.0 0.0 0.00 0.00 0.00 28 1013.1
20260503233101 61 43 0.0 0.0 0.00 0.00 0.00 28 1013.1